Imrikly — CNA5014 — position and weather

sailwx.info

Track history (hours):
 
Tides and Currents Weather Stations Pressure Air Temp Water Temp Dewpoint Dewpoint Depression Visibility Wind Speed Wind Dir Waves Ship Positions

Imrikly

Last reported at 2017-Nov-14 15:28 UTC. Time now 2017-Nov-18 23:32 UTC.
Position N 28°06' W 013°13'.

Length 106 m; draft 6.1 m.

Type: Ship (hazmat cat D). MMSI: 242426300.

Date/timePositionNaut miles runAvg speedWind from/ knotsBaromVisibWave heightAir tempDewpointWater temp
2017-Nov-14 15:28N 28°06' W 013°13'6 6.8
2017-Nov-14 14:38N 28°00' W 013°14'1 9.2
2017-Nov-14 14:29N 27°59' W 013°15'7 9.3
2017-Nov-14 13:42N 27°52' W 013°19'  
2017-Nov-11 17:01N 27°05' W 013°26'0 0.9
2017-Nov-11 16:58N 27°05' W 013°26'1 2.1
2017-Nov-11 16:23N 27°05' W 013°27'1 1.3
2017-Nov-11 15:59N 27°05' W 013°28'0 0.1
2017-Nov-11 15:29N 27°05' W 013°28'0 0.0
2017-Nov-11 09:47N 27°05' W 013°28'0 0.0
2017-Nov-11 08:38N 27°05' W 013°28'0 0.0
2017-Nov-11 08:20N 27°05' W 013°28'0 0.0
2017-Nov-11 07:53N 27°05' W 013°28'0 0.0
2017-Nov-10 22:56N 27°05' W 013°28'0 0.0
2017-Nov-10 22:23N 27°05' W 013°28'0 0.1
2017-Nov-10 21:56N 27°05' W 013°28'2 4.2
2017-Nov-10 21:30N 27°07' W 013°28'6 9.8
2017-Nov-10 20:56N 27°12' W 013°29'4 9.8
2017-Nov-10 20:30N 27°16' W 013°30'5 9.6
2017-Nov-10 20:00N 27°21' W 013°31'5 9.5
2017-Nov-10 19:30N 27°26' W 013°32'5 9.6
2017-Nov-10 18:59N 27°31' W 013°33'5 9.5
2017-Nov-10 18:30N 27°35' W 013°34'5 9.6
2017-Nov-10 17:59N 27°40' W 013°35'5 9.5
2017-Nov-10 17:30N 27°45' W 013°36'5 9.4
2017-Nov-10 17:00N 27°49' W 013°36'5 9.4
2017-Nov-10 16:30N 27°54' W 013°35'5 9.9
2017-Nov-10 16:00N 27°58' W 013°32'5 9.8
2017-Nov-10 15:30N 28°03' W 013°30'5 9.7
2017-Nov-10 14:59N 28°07' W 013°27'5 9.7
2017-Nov-10 14:29N 28°11' W 013°25'5 9.6
2017-Nov-10 14:00N 28°16' W 013°22'5 9.6
2017-Nov-10 13:30N 28°20' W 013°20'5 9.8
2017-Nov-10 13:00N 28°24' W 013°17'510.1
2017-Nov-10 12:30N 28°29' W 013°15'510.1
2017-Nov-10 12:00N 28°33' W 013°12'510.2
2017-Nov-10 11:30N 28°38' W 013°09'510.1
2017-Nov-10 11:00N 28°42' W 013°07'610.0
2017-Nov-10 10:25N 28°47' W 013°04'410.0
2017-Nov-10 10:00N 28°51' W 013°01'5 9.6
2017-Nov-10 09:30N 28°55' W 012°59'5 9.6
2017-Nov-10 09:00N 28°59' W 012°57'5 9.0
2017-Nov-10 08:30N 29°03' W 012°54'5 9.5
2017-Nov-10 08:00N 29°08' W 012°52'510.1
2017-Nov-10 07:30N 29°12' W 012°49'510.3
2017-Nov-10 07:00N 29°17' W 012°46'510.3
2017-Nov-10 06:30N 29°21' W 012°44'510.3
2017-Nov-10 06:00N 29°26' W 012°41'510.4
2017-Nov-10 05:30N 29°31' W 012°38'510.4
2017-Nov-10 05:00N 29°35' W 012°36'510.4
2017-Nov-10 04:30N 29°40' W 012°33'510.6
2017-Nov-10 04:00N 29°45' W 012°30'510.5
2017-Nov-10 03:30N 29°49' W 012°27'510.8
2017-Nov-10 03:00N 29°54' W 012°24'611.1
2017-Nov-10 02:30N 29°59' W 012°21'510.8
2017-Nov-10 02:00N 30°04' W 012°19'610.6
2017-Nov-10 01:29N 30°08' W 012°15'510.6
2017-Nov-10 00:59N 30°13' W 012°12'1410.5
2017-Nov-09 23:38N 30°25' W 012°03'110.4
2017-Nov-09 23:30N 30°26' W 012°03'510.5
2017-Nov-09 23:00N 30°31' W 011°59'2810.7
2017-Nov-09 20:22N 30°54' W 011°40'410.8
2017-Nov-09 19:59N 30°57' W 011°37'7211.0
2017-Nov-09 13:23N 31°56' W 010°48'410.7
2017-Nov-09 12:59N 31°60' W 010°45'610.3
2017-Nov-09 12:26N 32°04' W 010°42'610.1
2017-Nov-09 11:52N 32°09' W 010°38'4 9.9
2017-Nov-09 11:29N 32°12' W 010°35'6 9.8
2017-Nov-09 10:54N 32°17' W 010°31'2810.0
2017-Nov-09 08:07N 32°38' W 010°10'110.2
2017-Nov-09 08:00N 32°39' W 010°09'510.4
2017-Nov-09 07:30N 32°43' W 010°05'510.3
2017-Nov-09 07:00N 32°47' W 010°01'510.1
2017-Nov-09 06:30N 32°50' W 009°57'510.0
2017-Nov-09 06:00N 32°55' W 009°54'5 9.9
2017-Nov-09 05:29N 32°58' W 009°49'510.3
2017-Nov-09 05:00N 33°02' W 009°45'510.3
2017-Nov-09 04:30N 33°05' W 009°41'510.2
2017-Nov-09 03:59N 33°09' W 009°37'510.2
2017-Nov-09 03:29N 33°13' W 009°33'510.3
2017-Nov-09 03:00N 33°17' W 009°29'510.3
2017-Nov-09 02:29N 33°21' W 009°25'510.3
2017-Nov-09 02:00N 33°25' W 009°21'510.5
2017-Nov-09 01:30N 33°29' W 009°17'1210.6
2017-Nov-09 00:22N 33°38' W 009°07'610.5
2017-Nov-08 23:49N 33°42' W 009°02'510.8
2017-Nov-08 23:18N 33°46' W 008°58'225 6.7
2017-Nov-07 13:37N 36°08' W 005°26'0 0.0
2017-Nov-07 13:22N 36°08' W 005°26'0 0.0
2017-Nov-07 11:22N 36°08' W 005°26'0 0.0
2017-Nov-07 10:58N 36°08' W 005°26'0 0.0
2017-Nov-07 10:25N 36°08' W 005°26'  
Track history (hours):
 
Tides and Currents Weather Stations Pressure Air Temp Water Temp Dewpoint Dewpoint Depression Visibility Wind Speed Wind Dir Waves Ship Positions

Imrikly

Last reported at 2017-Nov-14 15:28 UTC. Time now 2017-Nov-18 23:32 UTC.
Position N 28°06' W 013°13'.

Length 106 m; draft 6.1 m.

Type: Ship (hazmat cat D). MMSI: 242426300.

Date/timePositionNaut miles runAvg speedWind from/ knotsBaromVisibWave heightAir tempDewpointWater temp
2017-Nov-14 15:28N 28°06' W 013°13'6 6.8
2017-Nov-14 14:38N 28°00' W 013°14'1 9.2
2017-Nov-14 14:29N 27°59' W 013°15'7 9.3
2017-Nov-14 13:42N 27°52' W 013°19'  
2017-Nov-11 17:01N 27°05' W 013°26'0 0.9
2017-Nov-11 16:58N 27°05' W 013°26'1 2.1
2017-Nov-11 16:23N 27°05' W 013°27'1 1.3
2017-Nov-11 15:59N 27°05' W 013°28'0 0.1
2017-Nov-11 15:29N 27°05' W 013°28'0 0.0
2017-Nov-11 09:47N 27°05' W 013°28'0 0.0
2017-Nov-11 08:38N 27°05' W 013°28'0 0.0
2017-Nov-11 08:20N 27°05' W 013°28'0 0.0
2017-Nov-11 07:53N 27°05' W 013°28'0 0.0
2017-Nov-10 22:56N 27°05' W 013°28'0 0.0
2017-Nov-10 22:23N 27°05' W 013°28'0 0.1
2017-Nov-10 21:56N 27°05' W 013°28'2 4.2
2017-Nov-10 21:30N 27°07' W 013°28'6 9.8
2017-Nov-10 20:56N 27°12' W 013°29'4 9.8
2017-Nov-10 20:30N 27°16' W 013°30'5 9.6
2017-Nov-10 20:00N 27°21' W 013°31'5 9.5
2017-Nov-10 19:30N 27°26' W 013°32'5 9.6
2017-Nov-10 18:59N 27°31' W 013°33'5 9.5
2017-Nov-10 18:30N 27°35' W 013°34'5 9.6
2017-Nov-10 17:59N 27°40' W 013°35'5 9.5
2017-Nov-10 17:30N 27°45' W 013°36'5 9.4
2017-Nov-10 17:00N 27°49' W 013°36'5 9.4
2017-Nov-10 16:30N 27°54' W 013°35'5 9.9
2017-Nov-10 16:00N 27°58' W 013°32'5 9.8
2017-Nov-10 15:30N 28°03' W 013°30'5 9.7
2017-Nov-10 14:59N 28°07' W 013°27'5 9.7
2017-Nov-10 14:29N 28°11' W 013°25'5 9.6
2017-Nov-10 14:00N 28°16' W 013°22'5 9.6
2017-Nov-10 13:30N 28°20' W 013°20'5 9.8
2017-Nov-10 13:00N 28°24' W 013°17'510.1
2017-Nov-10 12:30N 28°29' W 013°15'510.1
2017-Nov-10 12:00N 28°33' W 013°12'510.2
2017-Nov-10 11:30N 28°38' W 013°09'510.1
2017-Nov-10 11:00N 28°42' W 013°07'610.0
2017-Nov-10 10:25N 28°47' W 013°04'410.0
2017-Nov-10 10:00N 28°51' W 013°01'5 9.6
2017-Nov-10 09:30N 28°55' W 012°59'5 9.6
2017-Nov-10 09:00N 28°59' W 012°57'5 9.0
2017-Nov-10 08:30N 29°03' W 012°54'5 9.5
2017-Nov-10 08:00N 29°08' W 012°52'510.1
2017-Nov-10 07:30N 29°12' W 012°49'510.3
2017-Nov-10 07:00N 29°17' W 012°46'510.3
2017-Nov-10 06:30N 29°21' W 012°44'510.3
2017-Nov-10 06:00N 29°26' W 012°41'510.4
2017-Nov-10 05:30N 29°31' W 012°38'510.4
2017-Nov-10 05:00N 29°35' W 012°36'510.4
2017-Nov-10 04:30N 29°40' W 012°33'510.6
2017-Nov-10 04:00N 29°45' W 012°30'510.5
2017-Nov-10 03:30N 29°49' W 012°27'510.8
2017-Nov-10 03:00N 29°54' W 012°24'611.1
2017-Nov-10 02:30N 29°59' W 012°21'510.8
2017-Nov-10 02:00N 30°04' W 012°19'610.6
2017-Nov-10 01:29N 30°08' W 012°15'510.6
2017-Nov-10 00:59N 30°13' W 012°12'1410.5
2017-Nov-09 23:38N 30°25' W 012°03'110.4
2017-Nov-09 23:30N 30°26' W 012°03'510.5
2017-Nov-09 23:00N 30°31' W 011°59'2810.7
2017-Nov-09 20:22N 30°54' W 011°40'410.8
2017-Nov-09 19:59N 30°57' W 011°37'7211.0
2017-Nov-09 13:23N 31°56' W 010°48'410.7
2017-Nov-09 12:59N 31°60' W 010°45'610.3
2017-Nov-09 12:26N 32°04' W 010°42'610.1
2017-Nov-09 11:52N 32°09' W 010°38'4 9.9
2017-Nov-09 11:29N 32°12' W 010°35'6 9.8
2017-Nov-09 10:54N 32°17' W 010°31'2810.0
2017-Nov-09 08:07N 32°38' W 010°10'110.2
2017-Nov-09 08:00N 32°39' W 010°09'510.4
2017-Nov-09 07:30N 32°43' W 010°05'510.3
2017-Nov-09 07:00N 32°47' W 010°01'510.1
2017-Nov-09 06:30N 32°50' W 009°57'510.0
2017-Nov-09 06:00N 32°55' W 009°54'5 9.9
2017-Nov-09 05:29N 32°58' W 009°49'510.3
2017-Nov-09 05:00N 33°02' W 009°45'510.3
2017-Nov-09 04:30N 33°05' W 009°41'510.2
2017-Nov-09 03:59N 33°09' W 009°37'510.2
2017-Nov-09 03:29N 33°13' W 009°33'510.3
2017-Nov-09 03:00N 33°17' W 009°29'510.3
2017-Nov-09 02:29N 33°21' W 009°25'510.3
2017-Nov-09 02:00N 33°25' W 009°21'510.5
2017-Nov-09 01:30N 33°29' W 009°17'1210.6
2017-Nov-09 00:22N 33°38' W 009°07'610.5
2017-Nov-08 23:49N 33°42' W 009°02'510.8
2017-Nov-08 23:18N 33°46' W 008°58'225 6.7
2017-Nov-07 13:37N 36°08' W 005°26'0 0.0
2017-Nov-07 13:22N 36°08' W 005°26'0 0.0
2017-Nov-07 11:22N 36°08' W 005°26'0 0.0
2017-Nov-07 10:58N 36°08' W 005°26'0 0.0
2017-Nov-07 10:25N 36°08' W 005°26'  

Dump ship's entire track history